• Join FlightAware (Why Join?)
  • Login
  • US Flag GB Flag 
09:05 EST


 

Airport Tracker/Info


-or-


 

Live Flight TrackerFlight Track Log ✈ UAL3740 ✈ 12-Apr-2013 ✈ KPVD - KIAD

Flight Track Log - Related Links

Times and Time Zones

All times are in EDT time to prevent confusion due to time zone crossing. See the UAL3740 flight status page for this flight to view local times or setup timezone preferences in your user account.

Time Position Orientation Groundspeed Altitude Reporting Facility
EDT Latitude Longitude Course Direction KTS MPH feet Rate Location/Type
10:10 41.7978 -71.4431 344° North 209 241 4,000  Level Boston Center
10:11 41.8275 -71.5067 302° West 215 247 6,700 2,622 Climbing Boston Center
10:12 41.8594 -71.5844 299° West 221 254 9,200 1,815 Climbing Boston Center
10:13 41.8808 -71.6650 290° West 226 260 10,300 1,100 Climbing Boston Center
10:14 41.9086 -71.7622 291° West 280 322 11,400 1,537 Climbing Boston Center
10:15 41.9425 -71.8847 290° West 316 364 13,400 1,800 Climbing Boston Center
10:16 41.9703 -72.0017 288° West 328 377 15,000 1,587 Climbing Boston Center
10:17 41.9997 -72.1078 291° West 328 377 16,600 1,500 Climbing Boston Center
10:18 42.0333 -72.2361 289° West 328 377 18,000 1,400 Climbing Boston Center
10:19 42.0689 -72.3617 291° West 348 400 19,400 1,150 Climbing Boston Center
10:20 42.1003 -72.4878 289° West 353 406 20,300 1,210 Climbing Boston Center
10:21 42.1378 -72.6136 292° West 363 418 21,800 1,082 Climbing Boston Center
10:22 42.1436 -72.7425 274° West 344 396 22,500 1,289 Climbing Boston Center
10:23 42.0933 -72.8403 235° Southwest 322 371 24,400 2,017 Climbing Boston Center
10:24 42.0408 -72.9264 231° Southwest 304 350 26,500 1,831 Climbing Boston Center
10:25 41.9967 -72.9989 231° Southwest 294 338 28,000 750 Climbing Boston Center
10:26 41.9381 -73.0875 228° Southwest 289 333 28,000  Level Boston Center
10:27 41.8853 -73.1678 229° Southwest 309 356 28,000  Level Boston Center
10:28 41.8139 -73.2756 228° Southwest 344 396 28,000  Level Boston Center
10:29 41.7464 -73.3722 227° Southwest 367 422 28,000  Level Boston Center
10:30 41.6744 -73.4767 227° Southwest 381 438 28,000  Level Boston Center
10:32 41.5186 -73.7108 228° Southwest 382 440 28,000  Level New York Center
10:33 41.4408 -73.8208 227° Southwest 388 447 28,000  Level New York Center
10:34 41.3714 -73.9256 229° Southwest 388 447 28,000  Level New York Center
10:35 41.2956 -74.0325 227° Southwest 388 447 28,000 -49 Level New York Center
10:36 41.2239 -74.1392 228° Southwest 393 452 27,900  Descending New York Center
10:37 41.1372 -74.2533 225° Southwest 393 452 28,000 50 Climbing New York Center
10:38 41.0633 -74.3594 227° Southwest 393 452 28,000  Level New York Center
10:39 40.9914 -74.4658 228° Southwest 393 452 28,000  Level New York Center
10:40 40.9172 -74.5714 227° Southwest 393 452 28,000  Level New York Center
10:41 40.8611 -74.6944 239° Southwest 398 458 28,000  Level New York Center
10:42 40.8050 -74.8147 238° Southwest 393 452 28,000 -694 Level New York Center
10:43 40.7506 -74.9347 239° Southwest 393 452 26,600 -1,475 Descending New York Center
10:44 40.6989 -75.0467 239° Southwest 386 444 25,100 -1,513 Descending New York Center
10:45 40.6489 -75.1583 239° Southwest 373 429 23,600 -1,438 Descending New York Center
10:46 40.5989 -75.2700 239° Southwest 361 415 22,200 -1,438 Descending New York Center
10:47 40.5464 -75.3839 239° Southwest 361 415 20,700 -1,091 Descending New York Center
10:48 40.4939 -75.5006 239° Southwest 371 427 20,000 -350 Descending New York Center
10:49 40.4417 -75.6086 238° Southwest 371 427 20,000  Level New York Center
10:50 40.3892 -75.7194 238° Southwest 371 427 20,000  Level New York Center
10:51 40.3406 -75.8306 240° Southwest 366 421 20,000  Level New York Center
10:52 40.2928 -75.9250 236° Southwest 361 415 20,000  Level New York Center
10:53 40.2422 -76.0300 238° Southwest 355 409 20,000  Level New York Center
10:54 40.1936 -76.1350 239° Southwest 355 409 20,000 -203 Level New York Center
10:55 40.1542 -76.2244 240° Southwest 343 395 19,600 -1,289 Descending New York Center
10:56 40.0919 -76.3525 238° Southwest 343 395 17,400 -1,756 Descending New York Center
10:57 40.0433 -76.4542 238° Southwest 343 395 16,000 -603 Descending New York Center
11:00 39.9167 -76.7500 241° Southwest 332 382 15,100 -262 Descending Potomac TRACON
11:01 39.8667 -76.8500 237° Southwest 333 383 15,000 -50 Descending Potomac TRACON
11:02 39.8167 -76.9500 237° Southwest 333 383 15,000  Level Potomac TRACON
11:03 39.7667 -77.0500 237° Southwest 333 383 15,000 -1,550 Level Potomac TRACON
11:04 39.7167 -77.1500 237° Southwest 324 373 11,900 -2,550 Descending Potomac TRACON
11:05 39.6833 -77.2333 243° Southwest 301 346 9,900 -1,700 Descending Potomac TRACON
11:06 39.6333 -77.3167 232° Southwest 246 283 8,500 -1,450 Descending Potomac TRACON
11:07 39.5833 -77.3500 207° Southwest 249 287 7,000 -1,250 Descending Potomac TRACON
11:08 39.5167 -77.3833 201° Southwest 240 276 6,000 -1,190 Descending Potomac TRACON
11:09 39.4500 -77.4167 201° Southwest 244 281 4,600 -992 Descending Potomac TRACON
11:10 39.3833 -77.4333 191° South 241 277 4,000 -504 Descending Potomac TRACON
11:11 39.3167 -77.4333 180° South 235 270 3,600 -450 Descending Potomac TRACON
11:12 39.2500 -77.4333 180° South 240 276 3,100 -298 Descending Potomac TRACON
11:13 39.1833 -77.4333 180° South 233 268 3,000 -50 Descending Potomac TRACON
11:14 39.1167 -77.4333 180° South 239 275 3,000 -150 Level Potomac TRACON
11:15 39.0667 -77.4333 180° South 164 189 2,700 -524 Descending Potomac TRACON
11:16 39.0333 -77.4333 180° South 140 161 1,900 -762 Descending Potomac TRACON
11:17 38.9833 -77.4333 180° South 150 173 1,100 -800 Descending Potomac TRACON
11:19 38.9474 -77.4599 180° South  Level Estimated
11:26 38.9474 -77.4599 349° North  Level Estimated
11:27 38.9474 -77.4599 349° North  Level Estimated
11:28 38.9474 -77.4599 349° North  Level Estimated